Globalstar M091

operational
NORAD ID: 37741 Int'l Des: 2011-033 Owner: GLOBL Country: US Constellation: globalstar
LEOCIRCULAR

About Globalstar M091

Description loading...

Live Position

Loading 3D Globe...

Upcoming Passes

Altitude History

Altitude vs Time

uPlot chart will show altitude changes over time

Two-Line Element Set

1 37741U 11033C 25299.23204586 -.00000070 00000-0 18823-3 0 9990
2 37741 51.9992 234.1755 0000751 77.5959 68.5118 12.62260954659737
Epoch: Oct 26, 2025 • Age: 10 hours

Current Status

Altitude 1414.4 km
Velocity 7.16 km/s
Sub-Earth Point 25.90°N, 129.46°E
Launch Date Jul 13, 2011
Age 14.2 years
Type communications

Technical Details

Classification Payload
Mass 715.00 kg
Dry Mass 500.00 kg
Total Mass 715.00 kg
Length 4.00 m
Diameter 2.00 m
Span 12.00 m
Shape Trap Cyl + 2 Pan
Manufacturer THALR
Bus Type Prisma
Phase Status In Orbit
Owner/State GLOBL/US

Large Constellations

Loading constellations...